Flag for Brazil Weather past 2 weeks in Niterói, Rio de Janeiro, Brazil

Now
75 °F

Partly cloudy.


Feels Like: 75 °F
Forecast: 72 / 80 °F
Wind: 7 mph from Northwest

Location: Rio De Janeiro Airport

Current Time: Oct 20, 2014 at 7:09:16 AM

Latest Report: Oct 20, 2014 at 6:00 AM


Visibility: 4 mi

Pressure: 29.86 "Hg

Humidity: 83%

Dew point: 70 °F

Location of NiteróiLocation

Historic Weather in Niterói — Graph

°F

Niterói temperature yesterday

Maximum temperature yesterday: 91 °F (at 4:00 PM)
Minimum temperature yesterday: 72 °F (at 6:00 AM)
Average temperature yesterday: 82 °F

Past Weeks' High & Low Weather Summary

 TemperatureHumidityPressure
High91 °F (Oct 13, 12:00 PM)100% (Oct 12, 6:00 AM)30.33 "Hg (Oct 12, 6:00 AM)
Low64 °F (Oct 5, 7:00 AM)37% (Oct 8, 11:00 AM)29.68 "Hg (Oct 19, 4:00 PM)
Average75 °F73%30.00 "Hg
* Reported Oct 5 6:00 AM — Oct 20 6:00 AM, Niterói, Weather by CustomWeather, © 2014

Note: Actual official high and low records may vary slightly from our data, if they occured in-between our weather recording intervals... More about our weather records

Advertising

Niterói weather history for previous 24 hours

 ConditionsComfort  
Time TempWeatherWind HumidityBarometerVisibility
6:00 AM
Oct 20
75 °FPartly cloudy.7 mph83%29.86 "Hg4 mi
11:00 PM
Oct 19
81 °FThunderstorms. Passing clouds.12 mph70%N/AN/A
10:00 PM82 °FLight rain. Passing clouds.18 mph66%29.89 "HgN/A
9:00 PM82 °FPassing clouds.12 mph70%29.77 "HgN/A
8:00 PM81 °FClear.10 mph74%29.74 "Hg10 mi
7:00 PM81 °FClear.7 mph74%29.71 "Hg10 mi
6:00 PM84 °FSunny.12 mph66%29.68 "Hg10 mi
5:00 PM90 °FClear.17 mph55%29.68 "Hg6 mi
4:00 PM91 °FClear.15 mph52%29.68 "Hg6 mi
3:00 PM86 °FClear.12 mph62%29.71 "Hg5 mi
2:00 PM86 °FClear.13 mph62%29.74 "Hg4 mi
1:00 PM81 °FClear.17 mph74%29.77 "Hg4 mi
12:00 PM84 °FClear.5 mph66%29.80 "Hg4 mi
11:00 AM82 °FHaze.6 mph70%29.83 "Hg3 mi
10:00 AM81 °FHaze.6 mph70%29.83 "Hg3 mi
9:00 AM77 °FHaze.5 mph79%29.86 "Hg3 mi
8:00 AM75 °FFog.No wind83%29.86 "Hg3 mi
7:00 AM73 °FClear.2 mph89%29.83 "Hg4 mi
Weather by CustomWeather, © 2014

See weather overviewHow to use our weather pages